Tracking 19792 objects as of 15-Jul-2019
HD Live streaming from Space Station
objects crossing your sky now

TITAN 3D DEB

Track TITAN 3D DEB now!
10-day predictions


NORAD ID: 6824
Int'l Code: 1972-079E
Perigee: 1,439.0 km
Apogee: 1,451.3 km
Inclination: 95.5 °
Period: 114.6 minutes
Semi major axis: 7816 km
RCS: 0.0728 m2 (small)
Launch date: October 10, 1972
Source: United States (US)
Launch site: AIR FORCE WESTERN TEST RANGE (AFWTR)

Note: This is SATELLITE DEBRIS
aabbcc
Your satellite tracking list
Your tracking list is empty




NASA's NSSDC Master Catalog

Two Line Element Set (TLE):
1  6824U 72079E   19195.45507037  .00000050  00000-0  37091-3 0  9999
2  6824  95.5163  73.1188 0007857 107.3038  17.1452 12.56356161143743
Source of the keplerian elements: AFSPC